Location: Caltanissetta
(37.4830°N, 14.0670°E)
Time: 09:29:26
(UTC+02:00)

ISS - Visible Passes

Search period start: 08 May 2021 00:00
Search period end: 18 May 2021 00:00
Orbit: 418 x 421 km, 51.6° (Epoch: 08 May)

Date Brightness Start Highest point End Pass type
(mag) Time Alt. Az. Time Alt. Az. Time Alt. Az.
08 May -0.4 02:49:24 10° N 02:49:24 10° N 02:49:46 10° N visible
09 May -0.7 05:15:51 10° N 05:17:34 13° NNE 05:19:16 10° NE visible
10 May -0.3 04:29:14 10° N 04:29:51 10° NNE 04:30:29 10° NNE visible
11 May -1.3 05:17:02 10° NNW 05:19:54 25° NNE 05:22:45 10° E visible
12 May -0.7 04:29:56 10° NNW 04:32:18 18° NNE 04:34:40 10° ENE visible
13 May -0.5 03:42:55 10° N 03:44:38 13° NNE 03:46:22 10° NE visible
13 May -3.3 05:18:37 10° NW 05:21:59 66° NE 05:25:20 10° ESE visible
14 May -0.2 02:56:17 10° N 02:56:56 10° NNE 02:57:35 10° NNE visible
14 May -2.2 04:31:19 10° NW 04:34:30 38° NE 04:37:41 10° ESE visible
14 May -3.2 21:13:15 10° SSW 21:16:20 35° SE 21:19:26 10° ENE visible
14 May -1.4 22:50:21 10° W 22:53:12 25° NNW 22:55:40 12° NNE visible
15 May -1.4 03:44:06 10° NNW 03:46:58 25° NNE 03:49:49 10° E visible
15 May -3.1 05:20:42 10° WNW 05:23:49 35° SW 05:26:56 10° SSE visible
15 May -2.3 22:02:29 10° WSW 22:05:39 38° NW 22:08:49 10° NE visible
15 May -0.1 23:42:37 10° NNW 23:43:13 10° NNW 23:43:49 10° N visible
16 May -0.8 02:56:59 10° NNW 02:59:22 18° NNE 03:01:44 10° ENE visible
16 May -3.9 04:33:06 10° NW 04:36:28 67° SW 04:39:48 10° SE visible
16 May -3.4 21:14:50 10° WSW 21:18:10 66° NW 21:21:31 10° NE visible
16 May -0.4 22:53:49 10° NW 22:55:30 13° NNW 22:57:12 10° N visible
17 May -0.4 02:09:58 10° N 02:11:42 13° NNE 02:13:25 10° NE visible
17 May -3.5 03:45:40 10° NW 03:49:02 67° NE 03:52:23 10° ESE visible
17 May -0.7 22:05:30 10° WNW 22:07:51 17° NNW 22:10:12 10° NNE visible
